This is the latest recevied weather packets stored in our database for station/object KK6LVQ-13. If no packets are shown the sender has not sent any weather packets the latest 10 day(s).
| Time | Temp. | Humidity | Pressure | Rain* | Wind** | Luminosity | Snow |
|---|---|---|---|---|---|---|---|
| 1777919581 | 13.89° C | 79% | 1021 hPa | 0 mm | - | 129 W/m² | - |
| 1777919279 | 13.89° C | 77% | 1020.9 hPa | 0 mm | - | 147 W/m² | - |
| 1777918976 | 13.89° C | 76% | 1021.1 hPa | 0 mm | - | 149 W/m² | - |
| 1777918674 | 13.89° C | 76% | 1020.9 hPa | 0 mm | - | 137 W/m² | - |
| 1777918370 | 13.89° C | 77% | 1020.9 hPa | 0 mm | - | 163 W/m² | - |
| 1777918070 | 13.89° C | 76% | 1020.9 hPa | 0 mm | - | 177 W/m² | - |
| 1777917768 | 13.89° C | 74% | 1020.6 hPa | 0 mm | - | 186 W/m² | - |
| 1777917465 | 14.44° C | 74% | 1020.6 hPa | 0 mm | - | 167 W/m² | - |
| 1777917162 | 13.89° C | 73% | 1020.4 hPa | 0 mm | - | 180 W/m² | - |
| 1777916860 | 14.44° C | 73% | 1020.6 hPa | 0 mm | - | 186 W/m² | - |
| 1777916557 | 14.44° C | 72% | 1020.4 hPa | 0 mm | - | 186 W/m² | - |
| 1777916254 | 14.44° C | 72% | 1020.5 hPa | 0 mm | - | 194 W/m² | - |
| 1777915951 | 14.44° C | 71% | 1020.5 hPa | 0 mm | - | 164 W/m² | - |
| 1777915648 | 14.44° C | 72% | 1020.2 hPa | 0 mm | - | 180 W/m² | - |
| 1777915344 | 13.89° C | 70% | 1020.5 hPa | 0 mm | - | 208 W/m² | - |
| 1777915040 | 14.44° C | 72% | 1020.4 hPa | 0 mm | - | 162 W/m² | - |
| 1777914737 | 14.44° C | 71% | 1020.2 hPa | 0 mm | - | 231 W/m² | - |
| 1777914434 | 15.56° C | 72% | 1020.1 hPa | 0 mm | - | 231 W/m² | - |
| 1777914132 | 16.11° C | 70% | 1020.2 hPa | 0 mm | - | 741 W/m² | - |
| 1777913828 | 15.56° C | 69% | 1020 hPa | 0 mm | - | 669 W/m² | - |
| 1777913524 | 15° C | 74% | 1020.2 hPa | 0 mm | - | 631 W/m² | - |
| 1777913221 | 15.56° C | 71% | 1020.2 hPa | 0 mm | - | 578 W/m² | - |
| 1777912917 | 15° C | 74% | 1020.2 hPa | 0 mm | - | 530 W/m² | - |
| 1777912614 | 14.44° C | 75% | 1020.2 hPa | 0 mm | - | 495 W/m² | - |
| 1777912310 | 15° C | 77% | 1020.4 hPa | 0 mm | - | 478 W/m² | - |
* Rain latest hour (hover to see other rain measurements)
** Current wind speed in m/s (hover to see current wind gust speed)